La Motte, IA

6:18 PM CST on February 06, 2016 (GMT -0600)
Dubuque Regional

Weather History for KDBQ - January, 2013

Change the Weather History Date:

Friday, January 11, 2013

  Actual Average Record
Temperature  
Mean Temperature 39 °F 19 °F  
Max Temperature 44 °F 26 °F 52 °F (2012)
Min Temperature 34 °F 11 °F -21 °F (1977)
Degree Days  
Heating Degree Days 26 46  
Month to date heating degree days 475 506  
Since 1 July heating degree days 3155 3316  
Cooling Degree Days 0 0  
Month to date cooling degree days 0 0  
Year to date cooling degree days 0 0  
Moisture  
Dew Point 38 °F    
Average Humidity 96    
Maximum Humidity 100    
Minimum Humidity 92    
Precipitation  
Precipitation 0.02 in 0.03 in 0.87 in (1960)
Month to date precipitation 0.26 0.42  
Year to date precipitation 0.26 0.42  
Snow  
Snow 0.00 in 0.30 in - ()
Month to date snowfall T 3.5  
Since 1 July snowfall 19.2 18.1  
Snow Depth 3.00 in    
Sea Level Pressure  
Sea Level Pressure 29.65 in    
Wind  
Wind Speed 11 mph (South)    
Max Wind Speed 20 mph    
Max Gust Speed 24 mph    
Visibility 2 miles    
Events Fog    
T = Trace of Precipitation, MM = Missing Value Source: NWS Daily Summary

Daily Weather History Graph

Daily Weather History Graph

Search for Another Location

Airport or City:

Trip Planner

Search our weather history database for the weather conditions in past years. The results will help you decide how hot, cold, wet, or windy it might be!

Date:

Astronomy

Jan. 11, 2013 Rise Set
Actual Time 7:30 AM CST 4:51 PM CST
Civil Twilight 6:59 AM CST 5:22 PM CST
Nautical Twilight 6:24 AM CST 5:57 PM CST
Astronomical Twilight 5:50 AM CST 6:31 PM CST
Moon 7:03 AM CST (1/11) 5:10 PM CST (1/11)
Length of Visible Light 10h 22m
Length of Day
9h 20m
Waning Crescent, 0% of the Moon is Illuminated
Jan 11
Waning Crescent
Jan 11
New
Jan 18
First Quarter
Jan 26
Full
Feb 3
Last Quarter

Hourly Weather History & Observations

Time (CST) Temp. Windchill Dew Point Humidity Pressure Visibility Wind Dir Wind Speed Gust Speed Precip Events Conditions
12:20 AM 35.6 °F 26.2 °F 35.6 °F 100% 29.77 in 0.2 mi SSE 15.0 mph - N/A Fog Fog
12:27 AM 35.6 °F 26.2 °F 35.6 °F 100% 29.76 in 0.2 mi SSE 15.0 mph - N/A Fog Fog
12:53 AM 36.0 °F 28.5 °F 36.0 °F 100% 29.80 in 0.2 mi SSE 10.4 mph - N/A Fog Fog
1:38 AM 35.6 °F 29.9 °F 35.6 °F 100% 29.74 in 0.2 mi SSE 6.9 mph - N/A Fog Fog
1:53 AM 36.0 °F 28.0 °F 36.0 °F 100% 29.75 in 0.2 mi SE 11.5 mph - N/A Fog Fog
2:02 AM 35.6 °F 27.5 °F 35.6 °F 100% 29.72 in 0.2 mi SSE 11.5 mph - N/A Fog Fog
2:22 AM 35.6 °F 32.8 °F 35.6 °F 100% 29.72 in 0.2 mi South 3.5 mph - N/A Fog Fog
2:53 AM 37.0 °F - 37.0 °F 100% 29.72 in 0.2 mi Calm Calm - N/A Fog Fog
3:53 AM 35.1 °F 30.1 °F 35.1 °F 100% 29.71 in 0.2 mi SSW 5.8 mph - N/A Fog Fog
4:19 AM 33.8 °F 28.6 °F 33.8 °F 100% 29.68 in 0.2 mi SSW 5.8 mph - N/A Fog Fog
4:53 AM 34.0 °F 27.2 °F 34.0 °F 100% 29.70 in 0.5 mi SSW 8.1 mph - N/A Fog Fog
5:12 AM 33.8 °F 27.0 °F 33.8 °F 100% 29.67 in 0.2 mi SW 8.1 mph - 0.01 in Fog Fog
5:34 AM 35.6 °F 29.2 °F 35.6 °F 100% 29.67 in 0.2 mi SW 8.1 mph - 0.01 in Fog Fog
5:45 AM 33.8 °F 27.0 °F 33.8 °F 100% 29.67 in 0.2 mi SW 8.1 mph - 0.02 in Fog Fog
5:53 AM 35.6 °F 29.9 °F 35.6 °F 100% 29.67 in 0.2 mi SW 6.9 mph - N/A Fog Fog
6:53 AM 35.1 °F 30.1 °F 35.1 °F 100% 29.70 in 0.2 mi SW 5.8 mph - N/A Fog Fog
7:15 AM 35.6 °F 31.7 °F 35.6 °F 100% 29.66 in 0.2 mi SSW 4.6 mph - N/A Fog Fog
7:53 AM 34.0 °F 28.8 °F 34.0 °F 100% 29.70 in 0.2 mi SW 5.8 mph - N/A Fog Fog
8:04 AM 35.6 °F 29.2 °F 35.6 °F 100% 29.67 in 0.2 mi South 8.1 mph - N/A Fog Fog
8:42 AM 35.6 °F 28.6 °F 35.6 °F 100% 29.68 in 0.2 mi South 9.2 mph - N/A Fog Fog
8:53 AM 35.1 °F 27.4 °F 35.1 °F 100% 29.72 in 0.2 mi South 10.4 mph - N/A Fog Fog
9:53 AM 35.1 °F 25.9 °F 35.1 °F 100% 29.73 in 0.2 mi SSW 13.8 mph - N/A Fog Fog
10:53 AM 36.0 °F 29.0 °F 36.0 °F 100% 29.71 in 0.2 mi South 9.2 mph - N/A Fog Fog
11:21 AM 35.6 °F 28.6 °F 35.6 °F 100% 29.67 in 0.2 mi South 9.2 mph - N/A Fog Fog
11:53 AM 37.0 °F 32.4 °F 37.0 °F 100% 29.68 in 0.2 mi SSW 5.8 mph - N/A Fog Fog
12:53 PM 37.9 °F 30.5 °F 37.9 °F 100% 29.67 in 0.2 mi South 11.5 mph - N/A Fog Fog
1:53 PM 39.2 °F 31.6 °F 39.2 °F 100% 29.60 in 0.2 mi South 12.7 mph - N/A Fog Fog
2:53 PM 39.9 °F 31.8 °F 39.9 °F 100% 29.62 in 0.2 mi South 15.0 mph - N/A Fog Fog
3:04 PM 39.2 °F 30.5 °F 39.2 °F 100% 29.59 in 0.2 mi SSE 16.1 mph - N/A Fog Fog
3:53 PM 39.9 °F 32.1 °F 39.9 °F 100% 29.61 in 0.2 mi South 13.8 mph - N/A Fog Fog
4:33 PM 39.2 °F 32.5 °F 39.2 °F 100% 29.59 in 0.2 mi SSE 10.4 mph - N/A Fog Fog
4:53 PM 39.9 °F 32.9 °F 39.9 °F 100% 29.61 in 0.2 mi SSE 11.5 mph - N/A Fog Fog
5:23 PM 39.2 °F 31.2 °F 39.2 °F 100% 29.59 in 0.2 mi SSE 13.8 mph - N/A Fog Fog
5:53 PM 41.0 °F 33.5 °F 41.0 °F 100% 29.60 in 0.2 mi SSE 13.8 mph - N/A Fog Fog
5:59 PM 41.0 °F 33.9 °F 41.0 °F 100% 29.57 in 0.5 mi SSE 12.7 mph - N/A Fog Fog
6:12 PM 42.8 °F 35.4 °F 42.8 °F 100% 29.57 in 2.0 mi SSE 15.0 mph - N/A   Mostly Cloudy
6:16 PM 42.8 °F 36.2 °F 42.8 °F 100% 29.57 in 3.0 mi SSE 12.7 mph - N/A   Scattered Clouds
6:20 PM 42.8 °F 35.4 °F 42.8 °F 100% 29.56 in 3.0 mi SSE 15.0 mph - N/A   Scattered Clouds
6:32 PM 42.8 °F 34.5 °F 42.8 °F 100% 29.56 in 4.0 mi SSE 18.4 mph - N/A   Clear
6:53 PM 41.0 °F 33.1 °F 41.0 °F 100% 29.59 in 3.0 mi South 15.0 mph - N/A   Clear
7:07 PM 39.2 °F 30.8 °F 39.2 °F 100% 29.58 in 2.5 mi South 15.0 mph - N/A   Clear
7:19 PM 39.2 °F 30.8 °F 39.2 °F 100% 29.58 in 4.0 mi South 15.0 mph - N/A   Clear
7:53 PM 41.0 °F 32.8 °F 41.0 °F 100% 29.60 in 6.0 mi South 16.1 mph - N/A   Clear
8:53 PM 42.1 °F 33.9 °F 42.1 °F 100% 29.59 in 10.0 mi South 17.3 mph - N/A   Clear
9:53 PM 44.1 °F 36.5 °F 42.1 °F 93% 29.59 in 10.0 mi South 17.3 mph - N/A   Clear
10:53 PM 43.0 °F 36.0 °F 41.0 °F 93% 29.60 in 10.0 mi SSW 13.8 mph - N/A   Clear
11:53 PM 43.0 °F 36.0 °F 39.9 °F 89% 29.60 in 10.0 mi South 13.8 mph - N/A   Clear